PDT,Max TemperatureF,Mean TemperatureF,Min TemperatureF,Max Dew PointF,MeanDew PointF,Min DewpointF,Max Humidity, Mean Humidity, Min Humidity, Max Sea Level PressureIn, Mean Sea Level PressureIn, Min Sea Level PressureIn, Max VisibilityMiles, Mean VisibilityMiles, Min VisibilityMiles, Max Wind SpeedMPH, Mean Wind SpeedMPH, Max Gust SpeedMPH,PrecipitationIn, CloudCover, Events, WindDirDegrees
2013-5-1,53,37,21,8,0,-12,35,21,7,30.50,30.29,30.01,10,10,10,26,13,37,0.00,0,,350
2013-5-2,63,41,18,8,5,-1,56,33,9,30.59,30.44,30.30,10,10,10,13,7,17,0.00,0,,104
2013-5-3,73,49,24,10,5,0,42,25,7,30.30,30.02,29.83,10,10,10,22,10,29,0.00,0,,250
2013-5-4,61,44,27,22,16,8,46,31,16,29.91,29.80,29.71,10,10,4,39,7,62,T,2,Rain,162
2013-5-5,69,56,43,26,20,12,49,31,13,29.88,29.71,29.61,10,10,2,26,12,36,0.00,3,,141
2013-5-6,57,47,36,36,30,21,85,60,35,29.97,29.81,29.72,10,10,10,31,12,39,T,6,Rain,170
2013-5-7,54,41,28,37,33,28,92,68,44,30.00,29.91,29.83,10,10,4,22,7,26,0.02,6,Rain-Thunderstorm,169
2013-5-8,60,43,26,38,33,25,92,63,33,30.09,30.01,29.96,10,10,10,14,7,18,0.02,3,Rain-Thunderstorm,162
2013-5-9,69,50,31,37,29,19,92,56,19,30.18,30.04,29.96,10,10,10,35,12,41,0.00,1,,48
2013-5-10,71,51,31,32,29,25,75,49,22,30.30,30.14,30.09,10,10,2,23,11,28,0.00,0,,58
2013-5-11,77,56,34,31,26,21,82,48,14,30.30,30.18,30.12,10,10,10,14,7,17,T,1,Rain,172
2013-5-12,82,60,37,30,25,21,64,38,12,30.39,30.11,29.98,10,10,10,14,8,21,0.00,0,,178
2013-5-13,85,63,41,32,25,19,57,33,9,30.27,29.99,29.84,10,10,10,23,9,32,0.00,0,,184
2013-5-14,82,62,42,26,22,19,43,27,10,29.91,29.81,29.72,10,10,10,25,9,35,0.00,0,,182
2013-5-15,80,60,40,33,25,18,51,31,10,29.95,29.77,29.70,10,10,7,25,8,39,0.00,1,Thunderstorm,230
2013-5-16,74,57,39,32,23,15,48,30,12,29.93,29.72,29.64,10,9,6,29,9,38,T,5,Rain,221
2013-5-17,58,47,36,45,40,33,92,69,46,29.98,29.82,29.65,10,10,2,21,9,25,0.11,7,Rain-Thunderstorm,330
2013-5-18,64,48,31,39,31,26,96,62,27,30.01,29.96,29.92,10,10,10,21,8,25,T,3,,327
2013-5-19,53,42,31,41,34,27,77,66,54,30.19,30.07,29.94,10,9,2,26,7,31,0.33,7,Rain,307
2013-5-20,66,47,27,36,30,24,92,58,24,30.24,30.09,29.99,10,10,10,17,8,22,0.00,0,,89
2013-5-21,74,55,36,36,23,15,76,45,13,30.02,29.77,29.56,10,10,10,28,15,38,0.00,0,,185
2013-5-22,77,59,41,23,19,10,43,27,11,29.62,29.51,29.40,10,10,10,31,17,40,0.00,1,,208
2013-5-23,68,50,32,24,14,1,69,39,8,29.91,29.71,29.58,10,10,10,29,13,40,0.00,0,,280
2013-5-24,72,48,23,15,9,5,46,27,8,29.97,29.87,29.77,10,10,10,24,11,32,0.00,0,,178
2013-5-25,75,58,41,17,12,6,37,23,9,29.93,29.74,29.68,10,10,10,24,13,39,0.00,0,,188
2013-5-26,76,58,40,19,15,10,31,21,10,29.85,29.74,29.69,10,10,10,24,11,36,0.00,0,,209
2013-5-27,75,53,31,41,20,5,83,45,7,29.93,29.81,29.72,10,10,10,25,9,31,0.01,2,Rain,205
2013-5-28,58,45,31,41,36,30,93,69,45,29.92,29.77,29.65,10,10,9,24,9,29,0.06,6,Rain,294
2013-5-29,68,48,28,33,25,17,92,54,16,29.88,29.78,29.70,10,10,10,24,10,33,T,2,,253
2013-5-30,73,51,29,24,17,10,63,37,10,29.99,29.85,29.78,10,10,10,23,9,31,0.00,0,,290
2013-5-31,73,51,29,30,20,14,63,37,11,30.06,30.02,29.90,10,10,10,21,9,24,0.00,0,,47